Regional Weather Roundup
Issued by NWS Newport/Morehead, NC

Current Version | Previous Version | Graphics & Text | Print | Product List | Glossary Off
Versions: 1 2 3 4 5 6 7 8 9 10 11 12 13 14 15 16 17 18 19 20 21 22 23 24 25 26 27 28 29 30 31 32 33 34 35 36 37 38 39 40 41 42 43 44 45 46 47 48 49 50
000 ASUS42 KMHX 010613 RWRMHX WEATHER ROUNDUP FOR EASTERN NORTH CAROLINA NATIONAL WEATHER SERVICE NEWPORT/MOREHEAD CITY NC 200 AM EDT SAT AUG 01 2015 NOTE: "FAIR" INDICATES FEW OR NO CLOUDS BELOW 12,000 FEET WITH NO SIGNIFICANT WEATHER AND/OR OBSTRUCTIONS TO VISIBILITY NCZ015>017-031-032-045>047-102-103-010700- NORTH COAST CITY SKY/WX TMP DP RH WIND PRES REMARKS EDENTON CLEAR 75 66 75 S5 29.93S ELIZABETH CITY PTCLDY 69 67 93 S5 29.93S KITTY HAWK PTCLDY 75 64 70 CALM 29.92S MANTEO PTCLDY 77 67 70 SE3 29.94R $$ NCZ045>047-081-094-103-104-010700- CENTRAL COAST CITY SKY/WX TMP DP RH WIND PRES REMARKS FRISCO CLOUDY 78 72 81 NE3 29.93F SWANQUARTER N/A 77 N/A N/A E5 29.88F $$ NCZ095-097-098-100-101-010700- SOUTHERN COAST CITY SKY/WX TMP DP RH WIND PRES REMARKS BEAUFORT CLOUDY 78 76 93 SW5 29.91F CEDAR ISLAND N/A 79 N/A N/A SW2 29.97S JACKSONVILLE MOCLDY 76 73 91 CALM 29.92F PINEY ISLAND PTCLDY N/A N/A N/A SW3 29.92F WILMINGTON PTCLDY 77 74 90 NW5 29.93F $$ NCZ011>013-027>030-043-044-078>080-089-090>093-098-010700- COASTAL PLAIN CITY SKY/WX TMP DP RH WIND PRES REMARKS AHOSKIE CLEAR 68 66 94 CALM 29.93F CLINTON CLEAR 74 73 96 CALM 29.94S ELIZABETHTOWN MOCLDY 75 73 93 SE5 29.94R GOLDSBORO CLEAR 76 69 78 CALM 29.91S GREENVILLE PTCLDY 73 72 94 CALM 29.95F HAVELOCK MOCLDY 76 73 91 CALM 29.93F KENANSVILLE CLEAR N/A N/A N/A CALM 29.94F KINSTON CLEAR 74 72 91 CALM 29.94S NEW BERN PTCLDY 75 72 90 CALM 29.94F RICHLANDS PTCLDY 73 66 78 SW3 29.93F ROCKY MOUNT CLEAR 70 65 84 CALM 29.93F WASHINGTON PTCLDY 73 71 93 CALM 29.93F WHITEVILLE MOCLDY 73 70 90 CALM 29.93F $$ AMZ130-135-150-152-154-156-158-170-250-252-270-ANZ085-086-088-633-658-670-010700- MARINE OBSERVATIONS STATION/POSITION TIME TEMP WIND PRES WAVE SWELL AIR SEA DIR/SP/G HT/PER HT/PER (UTC) (F) (DEG/KT/KT) (MB) (FT/S) (FT/S) CHESAPEAKE LIGHT 0600 79 220/ 10/ 11 1013.3 64 E VA BEACH 0550 81 81 250/ 4/ 4 1012.8 3/ 9 3/ 9 DUCK 0500 79 66 170/ 4/ 5 1012.7 2 E DUCK 0511 80 N/A 2/ 9 OREGON INLET 0500 78 81 140/ 2/ 2 1013.4 13E OREGON INLT 0600 82 N/A 4/ 8 HATTERAS CG 0500 80 82 110/ 5/ 8 1013.9 DIAMOND BUOY 0550 82 85 60/ 4/ 6 1013.5 4/ 8 3/ 8 CAPE LOOKOUT 0600 78 250/ 5/ 7 1012.3 BEAUFORT LAB 0500 80 83 170/ 7/ 9 1013.3 30 SE NEW RVR IN NOT AVBL 27 SE WRIGHTSVLE 0500 79 83 240/ 10/ 12 N/A 5 SE WRIGHTSVLE NOT AVBL 225 S CAPE HAT 0550 82 81 230/ 16/ 19 1016.1 6/ 7 2/12 41 SE CHARLESTON 0550 83 84 220/ 12/ 16 1013.0 5/ 8 3/ 8 $$

USA.gov is the U.S. government's official web portal to all federal, state and local government web resources and services.